星链-34102 (STARLINK-34102)

导读 | 豆包AI

STARLINK-34102是美国太空探索技术公司SpaceX于2025年5月4日发射的星链(Starlink)低轨通信卫星,属于全球星链宽带互联网星座组网卫星。卫星采用平板设计,配备太阳电池阵与氪工质霍尔推进器,搭载Ku/Ka波段通信载荷,具备自主避撞能力,设计寿命5-7年,退役后将主动离轨再入大气层烧毁,服务全球覆盖的高速卫星互联网接入。

基本信息
目录编号:
63806
目录名称:
STARLINK-34102
国际标识:
2025-092C
轨道中心:
EARTH
卫星名称:
星链-34102
卫星全名:
星链-34102 (STARLINK-34102)
卫星状态:
在轨 (已飞行360 天)
发射日期:
2025-05-04 UTC
国别 :
美国 (US)
星等 :
--
轨道信息
数据来源 国际轨道数据 AOE轨道数据
星历时间 2026-04-29T09:20:58+0800
16小时前
查看轨道信息
2026-04-23T08:00:00+0800
6天前
查看轨道信息
半长轴 6861.117km 6861.254km
偏心率 0.0002275 0.0000032
轨道倾角 42.996° 43.003°
近地点辐角 284.142° 7.372°
升交点赤经 248.439° 282.648°
平近点角 75.918° 128.778°
近地点 481.419km 483.095km
远地点 484.541km 483.139km
周期 94.265分钟 94.268分钟
每日圈数 15.276034 15.275574
详细信息
固有亮度:
5
最大亮度:
2.5
卫星平台:
Starlink V1.0
覆盖范围:
全球
运营商:
太空探索技术公司
运营商所在国:
美国
制造商(研发单位):
太空探索技术公司
制造商所在国:
美国
使用方式:
暂无
卫星简介
Starlink 计划是 SpaceX 推出的全球卫星互联网项目,通过发射低轨道卫星,为全球尤其是偏远地区提供高速、低延迟的互联网服务。自 2019 年起,Starlink 已部署数千颗卫星,旨在缩小全球数字鸿沟,推动互联网普及。该项目还为军事、航空等行业提供通信支持,带来广泛经济效益。
2D轨道图
3D轨道图
轨道高度分析图
轨道倾角分析图
轨道综合分析图
查看轨道综合分析图